| time (UTC) | temp F | wind direction | speed MPH | gust MPH | rain 1hr in | rain 24hr in | rain mn in | humidity % | barometer mb |
| 20260509030038 | 56 | 269 | 0.0 | 0.0 | 0.00 | 0.00 | 0.00 | 47 | 1014.8 |
| 20260509024536 | 57 | 292 | 0.0 | 0.0 | 0.00 | 0.00 | 0.00 | 45 | 1014.7 |
| 20260509023135 | 58 | 293 | 0.0 | 0.0 | 0.00 | 0.00 | 0.00 | 43 | 1014.6 |
| 20260509021535 | 59 | 261 | 0.0 | 0.0 | 0.00 | 0.00 | 0.00 | 40 | 1014.4 |
| 20260509020034 | 60 | 300 | 0.0 | 0.0 | 0.00 | 0.00 | 0.00 | 38 | 1014.4 |
| 20260509014534 | 61 | 331 | 0.0 | 0.0 | 0.00 | 0.00 | 0.00 | 36 | 1014.4 |
| 20260509013051 | 62 | 311 | 0.0 | 0.0 | 0.00 | 0.00 | 0.00 | 36 | 1014.3 |
| 20260509011536 | 62 | 277 | 0.0 | 0.0 | 0.00 | 0.00 | 0.00 | 35 | 1014.3 |
| 20260509010031 | 63 | 294 | 0.0 | 0.0 | 0.00 | 0.00 | 0.00 | 33 | 1014.2 |
| 20260509004533 | 62 | 237 | 0.0 | 0.0 | 0.00 | 0.00 | 0.00 | 34 | 1014.1 |
| 20260509003032 | 63 | 292 | 0.0 | 0.0 | 0.00 | 0.00 | 0.00 | 32 | 1014.1 |
| 20260509001523 | 62 | 301 | 0.0 | 0.0 | 0.00 | 0.00 | 0.00 | 30 | 1014.2 |
| 20260509000018 | 63 | 234 | 0.0 | 0.0 | 0.00 | 0.00 | 0.00 | 27 | 1014.2 |
| 20260508234516 | 64 | 316 | 0.0 | 0.0 | 0.00 | 0.00 | 0.00 | 24 | 1014.2 |
| 20260508233012 | 63 | 230 | 0.0 | 0.0 | 0.00 | 0.00 | 0.00 | 28 | 1014.1 |
| 20260508231509 | 63 | 284 | 0.0 | 0.0 | 0.00 | 0.00 | 0.00 | 24 | 1014.0 |
| 20260508230017 | 64 | 254 | 0.0 | 0.0 | 0.00 | 0.00 | 0.00 | 27 | 1014.0 |
| 20260508224515 | 64 | 271 | 0.0 | 0.0 | 0.00 | 0.00 | 0.00 | 27 | 1014.1 |
| 20260508223010 | 64 | 281 | 0.0 | 0.0 | 0.00 | 0.00 | 0.00 | 33 | 1014.1 |
| 20260508221502 | 63 | 308 | 0.0 | 0.0 | 0.00 | 0.00 | 0.00 | 34 | 1014.2 |
| 20260508220003 | 62 | 320 | 0.0 | 0.0 | 0.00 | 0.00 | 0.00 | 38 | 1014.2 |
| 20260508214602 | 63 | 306 | 0.0 | 0.0 | 0.00 | 0.00 | 0.00 | 38 | 1014.3 |
| 20260508213116 | 61 | 294 | 0.0 | 0.0 | 0.00 | 0.00 | 0.00 | 44 | 1014.3 |
| 20260508211558 | 62 | 298 | 0.0 | 0.0 | 0.00 | 0.00 | 0.00 | 43 | 1014.4 |
| 20260508210055 | 61 | 290 | 0.0 | 0.0 | 0.00 | 0.00 | 0.00 | 48 | 1014.1 |
| 20260508204554 | 61 | 278 | 0.0 | 0.0 | 0.00 | 0.00 | 0.00 | 47 | 1014.0 |
| 20260508203108 | 61 | 272 | 0.0 | 0.0 | 0.00 | 0.00 | 0.00 | 45 | 1013.9 |
| 20260508201550 | 61 | 282 | 0.0 | 0.0 | 0.00 | 0.00 | 0.00 | 47 | 1013.9 |
| 20260508200053 | 60 | 271 | 0.0 | 0.0 | 0.00 | 0.00 | 0.00 | 46 | 1013.8 |
| 20260508194546 | 60 | 239 | 0.0 | 0.0 | 0.00 | 0.00 | 0.00 | 41 | 1013.9 |
| 20260508193116 | 61 | 320 | 0.0 | 0.0 | 0.00 | 0.00 | 0.00 | 44 | 1013.9 |
| 20260508191541 | 60 | 242 | 0.0 | 0.0 | 0.00 | 0.00 | 0.00 | 43 | 1014.0 |
| 20260508190039 | 59 | 275 | 0.0 | 0.0 | 0.00 | 0.00 | 0.00 | 46 | 1014.0 |
| 20260508184534 | 58 | 284 | 0.0 | 0.0 | 0.00 | 0.00 | 0.00 | 51 | 1014.1 |
| 20260508183033 | 57 | 240 | 0.0 | 0.0 | 0.00 | 0.00 | 0.00 | 46 | 1014.3 |
| 20260508181531 | 56 | 246 | 0.0 | 0.0 | 0.00 | 0.00 | 0.00 | 48 | 1014.3 |
| 20260508180030 | 56 | 221 | 0.0 | 0.0 | 0.00 | 0.00 | 0.00 | 47 | 1014.5 |
| 20260508174535 | 56 | 202 | 0.0 | 0.0 | 0.00 | 0.00 | 0.00 | 50 | 1014.5 |
| 20260508173022 | 56 | 211 | 0.0 | 0.0 | 0.00 | 0.00 | 0.00 | 50 | 1014.5 |
| 20260508171519 | 55 | 261 | 0.0 | 0.0 | 0.00 | 0.00 | 0.00 | 50 | 1014.4 |
| 20260508170017 | 55 | 215 | 0.0 | 0.0 | 0.00 | 0.00 | 0.00 | 47 | 1014.2 |
| 20260508164515 | 55 | 241 | 0.0 | 0.0 | 0.00 | 0.00 | 0.00 | 48 | 1014.0 |
| 20260508163011 | 55 | 252 | 0.0 | 0.0 | 0.00 | 0.00 | 0.00 | 46 | 1013.9 |
| 20260508161516 | 55 | 259 | 0.0 | 0.0 | 0.00 | 0.00 | 0.00 | 47 | 1013.7 |
| 20260508160009 | 54 | 178 | 0.0 | 0.0 | 0.00 | 0.00 | 0.00 | 48 | 1013.6 |
| 20260508154506 | 54 | 234 | 0.0 | 0.0 | 0.00 | 0.00 | 0.00 | 51 | 1013.6 |
| 20260508153003 | 53 | 217 | 0.0 | 0.0 | 0.00 | 0.00 | 0.00 | 49 | 1013.5 |
| 20260508151506 | 53 | 208 | 0.0 | 0.0 | 0.00 | 0.00 | 0.00 | 42 | 1013.6 |
| 20260508150008 | 53 | 236 | 0.0 | 0.0 | 0.00 | 0.00 | 0.00 | 41 | 1013.5 |
| 20260508144501 | 53 | 227 | 0.0 | 0.0 | 0.00 | 0.00 | 0.00 | 41 | 1013.5 |
| 20260508143105 | 52 | 170 | 0.0 | 0.0 | 0.00 | 0.00 | 0.00 | 47 | 1013.5 |
| 20260508141559 | 52 | 201 | 0.0 | 0.0 | 0.00 | 0.00 | 0.00 | 53 | 1013.5 |
| 20260508140110 | 51 | 170 | 0.0 | 0.0 | 0.00 | 0.00 | 0.00 | 52 | 1013.2 |
| 20260508134616 | 51 | 183 | 0.0 | 0.0 | 0.00 | 0.00 | 0.00 | 54 | 1013.2 |
| 20260508133110 | 50 | 192 | 0.0 | 0.0 | 0.00 | 0.00 | 0.00 | 53 | 1013.1 |
| 20260508131553 | 50 | 220 | 0.0 | 0.0 | 0.00 | 0.00 | 0.00 | 50 | 1013.3 |
| 20260508130050 | 50 | 239 | 0.0 | 0.0 | 0.00 | 0.00 | 0.00 | 46 | 1013.3 |
| 20260508124547 | 51 | 245 | 0.0 | 0.0 | 0.00 | 0.00 | 0.00 | 41 | 1013.2 |
| 20260508123047 | 51 | 227 | 0.0 | 0.0 | 0.00 | 0.00 | 0.00 | 38 | 1013.1 |
| 20260508121543 | 51 | 228 | 0.0 | 0.0 | 0.00 | 0.00 | 0.00 | 35 | 1013.1 |
| 20260508120048 | 51 | 239 | 0.0 | 0.0 | 0.00 | 0.00 | 0.00 | 33 | 1013.1 |
| 20260508114539 | 50 | 171 | 0.0 | 0.0 | 0.00 | 0.00 | 0.00 | 32 | 1013.0 |
| 20260508113044 | 52 | 205 | 0.0 | 0.0 | 0.00 | 0.00 | 0.00 | 31 | 1013.0 |
| 20260508111535 | 52 | 199 | 0.0 | 0.0 | 0.00 | 0.00 | 0.00 | 29 | 1012.8 |
| 20260508110033 | 51 | 146 | 0.0 | 0.0 | 0.00 | 0.00 | 0.00 | 28 | 1012.6 |
| 20260508104530 | 52 | 156 | 0.0 | 0.0 | 0.00 | 0.00 | 0.00 | 26 | 1012.4 |
| 20260508103029 | 52 | 159 | 0.0 | 0.0 | 0.00 | 0.00 | 0.00 | 28 | 1012.4 |
| 20260508101527 | 52 | 194 | 0.0 | 0.0 | 0.00 | 0.00 | 0.00 | 28 | 1012.5 |
| 20260508100026 | 52 | 205 | 0.0 | 0.0 | 0.00 | 0.00 | 0.00 | 27 | 1012.5 |
| 20260508094525 | 51 | 188 | 0.0 | 0.0 | 0.00 | 0.00 | 0.00 | 27 | 1012.7 |
| 20260508093023 | 52 | 171 | 0.0 | 0.0 | 0.00 | 0.00 | 0.00 | 27 | 1012.5 |
| 20260508091529 | 52 | 175 | 0.0 | 0.0 | 0.00 | 0.00 | 0.00 | 26 | 1012.6 |
| 20260508090018 | 53 | 196 | 0.0 | 0.0 | 0.00 | 0.00 | 0.00 | 25 | 1012.6 |
| 20260508084516 | 53 | 221 | 0.0 | 0.0 | 0.00 | 0.00 | 0.00 | 26 | 1012.7 |
| 20260508083024 | 52 | 188 | 0.0 | 0.0 | 0.00 | 0.00 | 0.00 | 28 | 1012.7 |
| 20260508081511 | 53 | 217 | 0.0 | 0.0 | 0.00 | 0.00 | 0.00 | 30 | 1012.8 |
| 20260508080008 | 53 | 190 | 0.0 | 0.0 | 0.00 | 0.00 | 0.00 | 32 | 1012.8 |
| 20260508074507 | 54 | 190 | 0.0 | 0.0 | 0.00 | 0.00 | 0.00 | 32 | 1012.7 |
| 20260508073004 | 53 | 201 | 0.0 | 0.0 | 0.00 | 0.00 | 0.00 | 34 | 1012.7 |
| 20260508071503 | 54 | 233 | 0.0 | 0.0 | 0.00 | 0.00 | 0.00 | 33 | 1012.6 |
| 20260508064559 | 54 | 215 | 0.0 | 0.0 | 0.00 | 0.00 | 0.00 | 36 | 1012.6 |
| 20260508063138 | 55 | 225 | 0.0 | 0.0 | 0.00 | 0.00 | 0.00 | 38 | 1012.5 |
| 20260508061557 | 55 | 205 | 0.0 | 0.0 | 0.00 | 0.00 | 0.00 | 37 | 1012.5 |
| 20260508060058 | 56 | 225 | 0.0 | 0.0 | 0.00 | 0.00 | 0.00 | 36 | 1012.4 |
| 20260508054556 | 57 | 219 | 0.0 | 0.0 | 0.00 | 0.00 | 0.00 | 34 | 1012.3 |
| 20260508053101 | 57 | 188 | 0.0 | 0.0 | 0.00 | 0.00 | 0.00 | 34 | 1012.2 |
| 20260508051618 | 57 | 184 | 0.0 | 0.0 | 0.00 | 0.00 | 0.00 | 34 | 1012.2 |
| 20260508050055 | 58 | 162 | 0.0 | 0.0 | 0.00 | 0.00 | 0.00 | 34 | 1012.2 |
| 20260508044653 | 58 | 175 | 0.0 | 0.0 | 0.00 | 0.00 | 0.00 | 34 | 1012.2 |
| 20260508043052 | 56 | 153 | 0.0 | 0.0 | 0.00 | 0.00 | 0.00 | 37 | 1012.1 |
| 20260508041552 | 56 | 150 | 0.0 | 0.0 | 0.00 | 0.00 | 0.00 | 37 | 1012.1 |
| 20260508040051 | 56 | 126 | 0.0 | 0.0 | 0.00 | 0.00 | 0.00 | 39 | 1012.1 |
| 20260508034551 | 58 | 128 | 0.0 | 0.0 | 0.00 | 0.00 | 0.00 | 40 | 1012.0 |
| 20260508033052 | 59 | 209 | 0.0 | 0.0 | 0.00 | 0.00 | 0.00 | 37 | 1012.0 |
| 20260508031549 | 60 | 278 | 0.0 | 0.0 | 0.00 | 0.00 | 0.00 | 32 | 1011.9 |